Home   Weather   Astrakhan   Past weeks

Flag for Russia Past Weather in Astrakhan, Russia — Yesterday and Last 2 Weeks

Now
66 °F

Sunny.


Feels Like: 66 °F
Forecast: 51 / 71 °F
Wind: 26 mph from South

Location: Astrakhan

Current Time: Apr 28, 2017 at 12:30:46 pm

Latest Report: Apr 28, 2017 at 11:30 am


Visibility: 10 mi

Pressure: 30.39 "Hg

Humidity: 26%

Dew Point: 30 °F

Location of AstrakhanLocation

Past Weather in Astrakhan — Graph

°F

Astrakhan Temperature Yesterday

Maximum temperature yesterday: 66 °F (at 1:30 pm)
Minimum temperature yesterday: 37 °F (at 3:30 am)
Average temperature yesterday: 54 °F

High & Low Weather Summary for the Past Weeks

 TemperatureHumidityPressure
High79 °F (Apr 19, 2:30 pm)100% (Apr 18, 1:30 am)30.54 "Hg (Apr 18, 1:30 am)
Low37 °F (Apr 16, 5:30 am)15% (Apr 26, 3:30 pm)29.45 "Hg (Apr 14, 4:30 pm)
Average54 °F61%30.01 "Hg
* Reported Apr 13 11:00 am — Apr 28 11:00 am, Astrakhan, Weather by CustomWeather, © 2017

Note: Actual official high and low records may vary slightly from our data, if they occured in-between our weather recording intervals... More about our weather records

Advertising

Astrakhan Weather History for the Previous 24 Hours

Scroll right to see more
 ConditionsComfort  
Time TempWeatherWind HumidityBarometerVisibility
11:00 am
Fri, Apr 28
66 °FPassing clouds.26 mph26%30.39 "HgN/A
10:30 am66 °FSunny.26 mph26%30.39 "Hg10 mi
10:00 am66 °FSunny.26 mph26%30.39 "Hg10 mi
9:30 am64 °FSunny.29 mph24%30.39 "Hg10 mi
9:00 am64 °FSunny.26 mph26%30.39 "Hg10 mi
8:30 am63 °FSunny.20 mph32%30.39 "Hg10 mi
8:00 am59 °FSunny.15 mph51%30.39 "Hg10 mi
7:30 am55 °FSunny.15 mph59%30.39 "Hg10 mi
7:00 am52 °FSunny.13 mph67%30.39 "Hg10 mi
6:30 am48 °FClear.10 mph76%30.39 "Hg10 mi
6:00 am46 °FClear.10 mph82%30.39 "Hg10 mi
5:30 am46 °FClear.10 mph82%30.39 "Hg10 mi
5:00 am46 °FClear.10 mph87%30.39 "Hg10 mi
4:30 am48 °FClear.10 mph82%30.39 "Hg10 mi
4:00 am46 °FClear.10 mph87%30.39 "Hg10 mi
3:30 am46 °FClear.10 mph87%30.39 "Hg10 mi
3:00 am48 °FClear.13 mph82%30.39 "Hg10 mi
2:30 am48 °FClear.10 mph82%30.39 "Hg10 mi
2:00 am48 °FClear.13 mph82%30.42 "Hg10 mi
1:30 am48 °FClear.10 mph82%30.42 "Hg10 mi
1:00 am50 °FClear.10 mph82%30.42 "Hg10 mi
12:30 am48 °FClear.10 mph87%30.42 "Hg10 mi
12:00 am48 °FClear.10 mph82%30.45 "Hg10 mi
11:30 pm
Thu, Apr 27
48 °FClear.13 mph82%30.45 "Hg10 mi
11:00 pm48 °FClear.10 mph76%30.45 "Hg10 mi
10:30 pm48 °FClear.13 mph76%30.45 "Hg10 mi
10:00 pm50 °FClear.13 mph71%30.45 "Hg10 mi
9:30 pm52 °FClear.10 mph62%30.48 "Hg10 mi
9:00 pm52 °FClear.8 mph62%30.48 "Hg10 mi
8:30 pm54 °FSunny.13 mph63%30.48 "Hg10 mi
8:00 pm55 °FSunny.13 mph55%30.48 "Hg10 mi
7:30 pm59 °FSunny.15 mph42%30.48 "Hg10 mi
7:00 pm61 °FSunny.17 mph29%30.48 "Hg10 mi
6:30 pm63 °FSunny.17 mph30%30.48 "Hg10 mi
6:00 pm63 °FSunny.20 mph27%30.48 "Hg10 mi
5:30 pm63 °FSunny.22 mph25%30.48 "Hg10 mi
4:30 pm63 °FSunny.24 mph27%30.48 "Hg10 mi
4:00 pm64 °FSunny.24 mph26%30.48 "Hg10 mi
3:30 pm64 °FSunny.22 mph24%30.51 "Hg10 mi
2:30 pm66 °FSunny.22 mph24%30.51 "Hg10 mi
2:00 pm64 °FSunny.24 mph24%30.51 "Hg10 mi
1:30 pm66 °FSunny.22 mph24%30.54 "Hg10 mi
1:00 pm64 °FSunny.22 mph26%30.54 "Hg10 mi
12:30 pm64 °FSunny.22 mph28%30.54 "Hg10 mi
12:00 pm63 °FSunny.20 mph30%30.54 "Hg10 mi
Weather by CustomWeather, © 2017

See weather overviewHow to use our weather pages